Regional Weather Roundup
Issued by NWS

Home | Current Version | Previous Version | Text Only | Print | Product List | Glossary On
Versions: 1 2 3 4 5 6 7 8 9 10 11 12 13 14 15 16 17 18 19 20 21 22 23 24 25 26 27 28 29 30 31 32 33 34 35 36 37 38 39 40 41 42 43 44 45 46 47 48 49 50
000
ASUS44 KFWD 241803
RWRTX
NORTH TEXAS HOURLY WEATHER ROUNDUP
NATIONAL WEATHER SERVICE FORT WORTH TX
100 PM CDT FRI OCT 24 2014

NOTE: "FAIR" INDICATES FEW OR NO CLOUDS BELOW 12,000 FEET WITH NO
SIGNIFICANT WEATHER AND/OR OBSTRUCTIONS TO VISIBILITY.

TXZ118-119-241900-
DALLAS/FORT WORTH METROPLEX

CITY           SKY/WX    TMP DP  RH WIND       PRES   REMARKS
DFW AIRPORT    MOSUNNY   78  57  48 S12       30.14F
6HR MIN TEMP:  60; 6HR MAX TEMP:  78;

DALLAS LOVE    MOSUNNY   78  56  46 S6        30.15F
6HR MIN TEMP:  62; 6HR MAX TEMP:  78;

FTW MEACHAM    SUNNY     80  60  50 S9        30.13F
6HR MIN TEMP:  63; 6HR MAX TEMP:  80;

DAL-EXECUTIVE  SUNNY     79  56  45 S8        30.15F
6HR MIN TEMP:  60; 6HR MAX TEMP:  79;

FTW-NAS-JRB    SUNNY     85  59  41 S8        30.17F
6HR MIN TEMP:  68; 6HR MAX TEMP:  85;

FTW-SPINKS     SUNNY     81  61  50 SW9       30.18S
ARLINGTON      SUNNY     79  57  46 S7        30.15F
6HR MIN TEMP:  61; 6HR MAX TEMP:  79;

GRAND PRAIRIE  SUNNY     79  59  50 MISG      30.16F
ADDISON        MOSUNNY   77  55  47 S9        30.16F
MESQUITE       SUNNY     75  54  46 S9        30.16F
LANCASTER      SUNNY     76  54  45 S7        30.17F
6HR MIN TEMP:  56; 6HR MAX TEMP:  77;

$$

TXZ091>094-102>105-117-120-121-131>134-241900-
NORTH CENTRAL TEXAS

CITY           SKY/WX    TMP DP  RH WIND       PRES   REMARKS
SHRMAN/DENISON SUNNY     78  62  57 S10G16    30.14F
6HR MIN TEMP:  60; 6HR MAX TEMP:  78;

GAINESVILLE    SUNNY     77  61  56 S10       30.15F
6HR MIN TEMP:  57; 6HR MAX TEMP:  77;

BOWIE          SUNNY     80  62  55 S8        30.13F
6HR MIN TEMP:  56; 6HR MAX TEMP:  80;

BRIDGEPORT     SUNNY     82  64  52 SW7       30.14F
6HR MIN TEMP:  56; 6HR MAX TEMP:  82;

DECATUR        SUNNY     79  60  52 S8        30.13F
6HR MIN TEMP:  60; 6HR MAX TEMP:  79;

DENTON         SUNNY     78  59  51 S9        30.13F
6HR MIN TEMP:  60; 6HR MAX TEMP:  78;

MCKINNEY       SUNNY     76  56  49 S10       30.14F
6HR MIN TEMP:  56; 6HR MAX TEMP:  77;

GREENVILLE     SUNNY     77  54  44 SW7       30.16F
ROCKWALL       SUNNY     76  57  51 S10       30.14F
6HR MIN TEMP:  59; 6HR MAX TEMP:  76;

TERRELL        SUNNY     76  56  49 S10       30.16F
6HR MIN TEMP:  58; 6HR MAX TEMP:  76;

WAXAHACHIE     SUNNY     78  58  50 S9        30.17F
6HR MIN TEMP:  59; 6HR MAX TEMP:  78;

CLEBURNE       SUNNY     79  61  53 SE9       30.16F
GRANBURY       SUNNY     82  62  49 S3        30.15F
6HR MIN TEMP:  61; 6HR MAX TEMP:  82;

$$

TXZ083>090-098>101-113>116-127>130-139>142-154-155-241900-
WESTERN NORTH TEXAS

CITY           SKY/WX    TMP DP  RH WIND       PRES   REMARKS
WICHITA FALLS  SUNNY     81  63  54 SW13      30.10F
6HR MIN TEMP:  58; 6HR MAX TEMP:  81;

WF-KICKAPOO    SUNNY     81  60  48 SW13      30.12F
6HR MIN TEMP:  58; 6HR MAX TEMP:  82;

VERNON         SUNNY     84  61  45 SW9       30.10F
ABILENE        SUNNY     81  61  50 S13       30.16F
6HR MIN TEMP:  61; 6HR MAX TEMP:  81;

ABILENE-DYESS  SUNNY     83  60  45 SW8       30.14F
6HR MIN TEMP:  58; 6HR MAX TEMP:  83;

BRECKENRIDGE   SUNNY     83  60  45 SW5       30.13F HAZE
6HR MIN TEMP:  62; 6HR MAX TEMP:  83;

MINERAL WELLS  SUNNY     82  61  48 SW7       30.12F
6HR MIN TEMP:  58; 6HR MAX TEMP:  82;

STEPHENVILLE   SUNNY     81  61  50 SW6       30.18F
6HR MIN TEMP:  58; 6HR MAX TEMP:  81;

COMANCHE       SUNNY     82  62  50 SW8       30.16F
6HR MIN TEMP:  60; 6HR MAX TEMP:  82;

COLEMAN        SUNNY     81  61  50 SW9       30.17F
6HR MIN TEMP:  58; 6HR MAX TEMP:  81;

BRADY          SUNNY     82  57  42 S8        30.18F
$$

TXZ143>147-156>162-174-175-241900-
CENTRAL TEXAS

CITY           SKY/WX    TMP DP  RH WIND       PRES   REMARKS
WACO           SUNNY     78  57  48 S10       30.16F
6HR MIN TEMP:  58; 6HR MAX TEMP:  78;

WACO-TSTC      SUNNY     77  57  50 S7        30.16F
WACO-MCGREGOR  SUNNY     79  55  44 S6        30.18F
6HR MIN TEMP:  57; 6HR MAX TEMP:  79;

HILLSBORO      SUNNY     79  56  43 S9        30.15F
6HR MIN TEMP:  61; 6HR MAX TEMP:  80;

CORSICANA      SUNNY     76  56  49 S7        30.17F
6HR MIN TEMP:  56; 6HR MAX TEMP:  76;

MEXIA          PTSUNNY   74  58  56 S6        30.17F
6HR MIN TEMP:  56; 6HR MAX TEMP:  74;

HEARNE         MOSUNNY   75  56  50 CALM      30.18F HAZE
6HR MIN TEMP:  54; 6HR MAX TEMP:  75;

CAMERON        SUNNY     78  58  51 CALM      30.17F
6HR MIN TEMP:  56; 6HR MAX TEMP:  78;

TEMPLE         SUNNY     77  55  47 SE5       30.16F
6HR MIN TEMP:  57; 6HR MAX TEMP:  77;

KILLEEN        SUNNY     80  60  50 SE5       30.16F
6HR MIN TEMP:  60; 6HR MAX TEMP:  80;

KILLEEN-SKYLRK SUNNY     79  59  50 SE7       30.15F
6HR MIN TEMP:  57; 6HR MAX TEMP:  81;

FORT HOOD      SUNNY     83  60  45 SE6       30.16F
6HR MIN TEMP:  61; 6HR MAX TEMP:  83;

GATESVILLE     SUNNY     81  59  47 CALM      30.18F
HAMILTON       SUNNY     83  59  44 SW8       30.17F
6HR MIN TEMP:  58; 6HR MAX TEMP:  83;

LAMPASAS       SUNNY     81  63  54 S6        30.16F
6HR MIN TEMP:  58; 6HR MAX TEMP:  81;

$$

TXZ095>097-106>112-122>126-135>138-148>153-164>167-241900-
EAST TEXAS

CITY           SKY/WX    TMP DP  RH WIND       PRES   REMARKS
PARIS          SUNNY     73  55  53 SW5       30.17F
6HR MIN TEMP:  52; 6HR MAX TEMP:  73;

SULPHUR SPRNGS SUNNY     75  55  49 SW6       30.18F
6HR MIN TEMP:  53; 6HR MAX TEMP:  75;

MOUNT PLEASANT SUNNY     74  53  47 CALM      30.18F
6HR MIN TEMP:  53; 6HR MAX TEMP:  74;

MINEOLA        SUNNY     75  55  50 CALM      30.17F
TYLER          SUNNY     74  55  51 CALM      30.16F
6HR MIN TEMP:  58; 6HR MAX TEMP:  75;

LONGVIEW       SUNNY     74  51  44 CALM      30.16F
6HR MIN TEMP:  51; 6HR MAX TEMP:  74;

MARSHALL       SUNNY     73  54  49 CALM      30.18F
6HR MIN TEMP:  51; 6HR MAX TEMP:  73;

ATHENS         SUNNY     72  54  53 W3        30.16F
PALESTINE      SUNNY     74  56  55 CALM      30.18F
JACKSONVILLE   SUNNY     74  53  48 CALM      30.19F
HENDERSON      SUNNY     75  52  45 CALM      30.17F
6HR MIN TEMP:  49; 6HR MAX TEMP:  75;

NACOGDOCHES    SUNNY     72  52  49 CALM      30.17F
6HR MIN TEMP:  46; 6HR MAX TEMP:  72;

LUFKIN         SUNNY     77  51  40 NE6       30.16F
6HR MIN TEMP:  53; 6HR MAX TEMP:  77;

$$

SUPPLEMENTAL OBSERVATIONS (CENTRAL)

CITY           SKY/WX    TMP DP  RH WIND       PRES   REMARKS
$$

SUPPLEMENTAL OBSERVATIONS (WEST)

CITY           SKY/WX    TMP DP  RH WIND       PRES   REMARKS
$$

SUPPLEMENTAL OBSERVATIONS (EAST)

CITY           SKY/WX    TMP DP  RH WIND       PRES   REMARKS
$$

SUPPLEMENTAL OBSERVATIONS ARE A COLLECTION OF AUTOMATED INSTRUMENTS
THAT ARE MAINTAINED BY A VARIETY OF FEDERAL AND STATE AGENCIES.
CERTAIN ELEMENTS...SUCH AS HUMIDITY VALUES AND SUSTAINED WIND
SPEEDS...MAY BE APPROXIMATED.




USA.gov is the U.S. government's official web portal to all federal, state and local government web resources and services.